When you browse on this site, cookies collect data to enhance your experience and personalize the content and advertising you see.
Visit our Privacy Policy to learn more. By continuing to use the site, you agree to this use of cookies and data.
  • In Schweiz
  • Länderverzeichnis
  • Für 7 Tage
  • Wassertemperatur
  • Satellitenkarten
  • Wetterkarte
  • Widgets
  • user-avatar
    Anmelden

    Stündliche Wetter Oyem

    Heute, 17 Juli, Mittwoch

    Zeit Temperatur Niederschläge Wind Luftdruck Luftfeuchtigkeit
    00:00 +20°C° 0.9 mm 0 m/S 704 mmHg 97%
    01:00 +20°C° 0.9 mm 0 m/S 704 mmHg 99%
    02:00 +20°C° 0.9 mm 0 m/S 704 mmHg 99%
    03:00 +20°C° 0.9 mm 0 m/S 704 mmHg 99%
    04:00 +22°C° 0.9 mm 1 m/S 704 mmHg 99%
    05:00 +22°C° 0 mm 1 m/S 704 mmHg 98%
    06:00 +22°C° 0 mm 1 m/S 705 mmHg 98%
    07:00 +23°C° 0 mm 1 m/S 705 mmHg 98%
    08:00 +23°C° 0.1 mm 1 m/S 706 mmHg 95%
    09:00 +24°C° 0.1 mm 1 m/S 706 mmHg 92%
    10:00 +25°C° 0.1 mm 1 m/S 706 mmHg 90%
    11:00 +26°C° 0.1 mm 1 m/S 706 mmHg 82%
    12:00 +28°C° 0.1 mm 1 m/S 705 mmHg 75%
    13:00 +27°C° 0.1 mm 0 m/S 705 mmHg 67%
    14:00 +29°C° 0.4 mm 1 m/S 704 mmHg 70%
    15:00 +29°C° 0.4 mm 1 m/S 703 mmHg 73%
    16:00 +28°C° 0.4 mm 1 m/S 703 mmHg 76%
    17:00 +27°C° 1.2 mm 1 m/S 703 mmHg 83%
    18:00 +25°C° 1.2 mm 1 m/S 703 mmHg 89%
    19:00 +24°C° 1.2 mm 1 m/S 703 mmHg 96%
    20:00 +23°C° 1.9 mm 1 m/S 704 mmHg 96%
    21:00 +23°C° 1.9 mm 1 m/S 704 mmHg 96%
    22:00 +23°C° 1.9 mm 1 m/S 705 mmHg 96%
    23:00 +22°C° 1.5 mm 1 m/S 705 mmHg 96%

    Morgen, 18 Juli, Donnerstag

    Zeit Temperatur Niederschläge Wind Luftdruck Luftfeuchtigkeit
    00:00 +22°C° 1.5 mm 1 m/S 704 mmHg 97%
    01:00 +22°C° 1.5 mm 1 m/S 704 mmHg 97%
    02:00 +22°C° 0.6 mm 1 m/S 704 mmHg 98%
    03:00 +22°C° 0.6 mm 1 m/S 704 mmHg 98%
    04:00 +22°C° 0.6 mm 1 m/S 704 mmHg 98%
    05:00 +22°C° 0.2 mm 1 m/S 704 mmHg 98%
    06:00 +22°C° 0.2 mm 1 m/S 704 mmHg 98%
    07:00 +22°C° 0.2 mm 1 m/S 704 mmHg 98%
    08:00 +23°C° 0 mm 1 m/S 705 mmHg 93%
    09:00 +24°C° 0 mm 1 m/S 705 mmHg 88%
    10:00 +26°C° 0 mm 1 m/S 706 mmHg 83%
    11:00 +26°C° 0.6 mm 1 m/S 705 mmHg 82%
    12:00 +27°C° 0.6 mm 1 m/S 705 mmHg 81%
    13:00 +28°C° 0.6 mm 1 m/S 704 mmHg 80%
    14:00 +27°C° 2.4 mm 1 m/S 703 mmHg 85%
    15:00 +26°C° 2.4 mm 1 m/S 702 mmHg 89%
    16:00 +25°C° 2.4 mm 1 m/S 701 mmHg 94%
    17:00 +24°C° 1.1 mm 1 m/S 702 mmHg 95%
    18:00 +23°C° 1.1 mm 1 m/S 702 mmHg 95%
    19:00 +23°C° 1.1 mm 1 m/S 703 mmHg 95%
    20:00 +23°C° 0.2 mm 1 m/S 703 mmHg 96%
    21:00 +22°C° 0.2 mm 1 m/S 704 mmHg 97%
    22:00 +22°C° 0.2 mm 1 m/S 704 mmHg 98%
    23:00 +22°C° 1.4 mm 1 m/S 704 mmHg 98%

    übermorgen, 19 Juli, Freitag

    Zeit Temperatur Niederschläge Wind Luftdruck Luftfeuchtigkeit
    00:00 +22°C° 1.4 mm 1 m/S 704 mmHg 98%
    01:00 +22°C° 1.4 mm 1 m/S 704 mmHg 98%
    02:00 +22°C° 0.5 mm 1 m/S 704 mmHg 98%
    03:00 +22°C° 0.5 mm 1 m/S 704 mmHg 99%
    04:00 +22°C° 0.5 mm 1 m/S 704 mmHg 99%
    05:00 +22°C° 0.3 mm 1 m/S 704 mmHg 99%
    06:00 +22°C° 0.3 mm 1 m/S 704 mmHg 98%
    07:00 +22°C° 0.3 mm 1 m/S 704 mmHg 98%
    08:00 +22°C° 0.1 mm 1 m/S 705 mmHg 98%
    09:00 +22°C° 0.1 mm 1 m/S 705 mmHg 98%
    10:00 +22°C° 0.1 mm 1 m/S 705 mmHg 97%
    11:00 +23°C° 0 mm 1 m/S 705 mmHg 93%
    12:00 +24°C° 0 mm 1 m/S 704 mmHg 89%
    13:00 +25°C° 0 mm 1 m/S 704 mmHg 85%
    14:00 +25°C° 0.7 mm 1 m/S 704 mmHg 85%
    15:00 +25°C° 0.7 mm 1 m/S 703 mmHg 86%
    16:00 +25°C° 0.7 mm 1 m/S 703 mmHg 87%
    17:00 +24°C° 0.6 mm 1 m/S 703 mmHg 90%
    18:00 +23°C° 0.6 mm 1 m/S 703 mmHg 93%
    19:00 +22°C° 0.6 mm 1 m/S 704 mmHg 95%
    20:00 +22°C° 0.1 mm 1 m/S 704 mmHg 96%
    21:00 +22°C° 0.1 mm 1 m/S 704 mmHg 97%
    22:00 +21°C° 0.1 mm 1 m/S 705 mmHg 98%
    23:00 +21°C° 0 mm 1 m/S 705 mmHg 98%

    20 Juli, Samstag

    Zeit Temperatur Niederschläge Wind Luftdruck Luftfeuchtigkeit
    00:00 +21°C° 0 mm 1 m/S 704 mmHg 98%
    01:00 +21°C° 0 mm 1 m/S 704 mmHg 99%
    02:00 +21°C° 0 mm 1 m/S 704 mmHg 98%
    03:00 +21°C° 0 mm 1 m/S 704 mmHg 97%
    04:00 +21°C° 0 mm 1 m/S 704 mmHg 97%
    05:00 +21°C° 0 mm 1 m/S 704 mmHg 96%
    06:00 +22°C° 0 mm 1 m/S 705 mmHg 96%
    07:00 +22°C° 0 mm 1 m/S 705 mmHg 95%
    08:00 +23°C° 0 mm 1 m/S 706 mmHg 89%
    09:00 +25°C° 0 mm 1 m/S 706 mmHg 82%
    10:00 +26°C° 0 mm 1 m/S 707 mmHg 76%
    11:00 +27°C° 0.1 mm 1 m/S 706 mmHg 72%
    12:00 +28°C° 0.1 mm 1 m/S 706 mmHg 68%
    13:00 +29°C° 0.1 mm 1 m/S 705 mmHg 64%
    14:00 +28°C° 0.9 mm 1 m/S 704 mmHg 71%
    15:00 +27°C° 0.9 mm 1 m/S 704 mmHg 78%
    16:00 +27°C° 0.9 mm 1 m/S 703 mmHg 85%
    17:00 +25°C° 0.6 mm 1 m/S 703 mmHg 89%
    18:00 +24°C° 0.6 mm 1 m/S 704 mmHg 93%
    19:00 +23°C° 0.6 mm 1 m/S 704 mmHg 97%
    20:00 +22°C° 0.3 mm 1 m/S 704 mmHg 97%
    21:00 +22°C° 0.3 mm 1 m/S 705 mmHg 97%
    22:00 +22°C° 0.3 mm 1 m/S 705 mmHg 98%
    23:00 +22°C° 0.1 mm 1 m/S 705 mmHg 98%

    21 Juli, Sonntag

    Zeit Temperatur Niederschläge Wind Luftdruck Luftfeuchtigkeit
    00:00 +21°C° 0.1 mm 1 m/S 705 mmHg 98%
    01:00 +21°C° 0.1 mm 1 m/S 705 mmHg 98%
    02:00 +21°C° 0 mm 1 m/S 704 mmHg 98%
    03:00 +21°C° 0 mm 1 m/S 704 mmHg 98%
    04:00 +21°C° 0 mm 1 m/S 704 mmHg 98%
    05:00 +21°C° 0 mm 1 m/S 704 mmHg 97%
    06:00 +21°C° 0 mm 1 m/S 705 mmHg 97%
    07:00 +21°C° 0 mm 1 m/S 705 mmHg 97%
    08:00 +22°C° 0 mm 1 m/S 705 mmHg 94%
    09:00 +22°C° 0 mm 1 m/S 706 mmHg 92%
    10:00 +23°C° 0 mm 1 m/S 706 mmHg 90%
    11:00 +25°C° 0 mm 1 m/S 706 mmHg 82%
    12:00 +26°C° 0 mm 1 m/S 705 mmHg 74%
    13:00 +28°C° 0 mm 2 m/S 705 mmHg 66%
    14:00 +27°C° 0.9 mm 1 m/S 704 mmHg 72%
    15:00 +27°C° 0.9 mm 1 m/S 704 mmHg 79%
    16:00 +26°C° 0.9 mm 1 m/S 703 mmHg 85%
    17:00 +25°C° 1.4 mm 1 m/S 703 mmHg 89%
    18:00 +24°C° 1.4 mm 1 m/S 704 mmHg 92%
    19:00 +23°C° 1.4 mm 1 m/S 704 mmHg 96%
    20:00 +22°C° 1.3 mm 1 m/S 704 mmHg 96%
    21:00 +22°C° 1.3 mm 1 m/S 705 mmHg 97%
    22:00 +22°C° 1.3 mm 1 m/S 705 mmHg 97%
    23:00 +22°C° 0.4 mm 1 m/S 705 mmHg 98%

    22 Juli, Montag

    Zeit Temperatur Niederschläge Wind Luftdruck Luftfeuchtigkeit
    00:00 +22°C° 0.4 mm 1 m/S 705 mmHg 98%
    01:00 +22°C° 0.4 mm 1 m/S 705 mmHg 99%
    02:00 +21°C° 0.2 mm 1 m/S 704 mmHg 98%
    03:00 +21°C° 0.2 mm 1 m/S 704 mmHg 98%
    04:00 +21°C° 0.2 mm 1 m/S 704 mmHg 98%
    05:00 +21°C° 0.2 mm 1 m/S 704 mmHg 98%
    06:00 +21°C° 0.2 mm 1 m/S 705 mmHg 98%
    07:00 +21°C° 0.2 mm 1 m/S 705 mmHg 98%
    08:00 +22°C° 0 mm 1 m/S 705 mmHg 94%
    09:00 +23°C° 0 mm 1 m/S 706 mmHg 89%
    10:00 +24°C° 0 mm 1 m/S 706 mmHg 85%
    11:00 +25°C° 0.2 mm 1 m/S 706 mmHg 81%
    12:00 +26°C° 0.2 mm 1 m/S 705 mmHg 78%
    13:00 +27°C° 0.2 mm 1 m/S 705 mmHg 74%
    14:00 +27°C° 0.2 mm 1 m/S 704 mmHg 72%
    15:00 +28°C° 0.2 mm 1 m/S 704 mmHg 69%
    16:00 +28°C° 0.2 mm 1 m/S 703 mmHg 67%
    17:00 +26°C° 0.7 mm 1 m/S 703 mmHg 76%
    18:00 +25°C° 0.7 mm 1 m/S 703 mmHg 85%
    19:00 +23°C° 0.7 mm 1 m/S 703 mmHg 95%
    20:00 +22°C° 1.2 mm 1 m/S 704 mmHg 96%
    21:00 +22°C° 1.2 mm 1 m/S 704 mmHg 97%
    22:00 +21°C° 1.2 mm 1 m/S 705 mmHg 98%
    23:00 +21°C° 0.7 mm 1 m/S 705 mmHg 99%
    Mehr zeigen